Regional Weather Roundup
Issued by NWS

Home | Current Version | Previous Version | Graphics & Text | Print | Product List | Glossary On
Versions: 1 2 3 4 5 6 7 8 9 10 11 12 13 14 15 16 17 18 19 20 21 22 23 24 25 26 27 28 29 30 31 32 33 34 35 36 37 38 39 40 41 42 43 44 45 46 47 48 49 50
000
ASUS43 KDMX 281701
RWRIA

WEATHER ROUNDUP FOR IOWA
NATIONAL WEATHER SERVICE DES MOINES IA
1200 PM CDT FRI APR 28 2017

NOTE: "FAIR" INDICATES FEW OR NO CLOUDS BELOW 12,000 FEET WITH NO
SIGNIFICANT WEATHER AND/OR OBSTRUCTIONS TO VISIBILITY.

* - THESE STATIONS ARE NOT NWS STATIONS...THUS NOT UNDER NWS
QUALITY CONTROL.  THEY ALSO DO NOT REPORT WEATHER SUCH
AS PRECIPITATION OR FOG.

IAZ001>003-012>014-020>022-031>034-043>046-281800-
   NORTHWEST IOWA

CITY           SKY/WX    TMP DP  RH WIND       PRES   REMARKS
CARROLL *      LGT SNOW  34  34 100 NE8       29.90R WCI  27
CHEROKEE *     CLOUDY    41  32  70 NE14      29.91R
DENISON *      LGT SNOW  34  34 100 NE13G20   29.90S WCI  25
LE MARS *      MOSUNNY   43  30  61 NE15G22   29.91S
ORANGE CITY *  CLOUDY    41  34  75 NE10      29.90F
SHELDON *      CLOUDY    41  32  70 NE15      29.90F
SIOUX CITY     CLOUDY    40  31  70 NE13      29.90R WCI  32
SPENCER        CLOUDY    44  33  65 NE16      29.91F
STORM LAKE *   MOSUNNY   39  30  70 E13       29.90R WCI  32
$$

IAZ055>058-069>071-079>083-090>094-281800-
   SOUTHWEST IOWA

CITY           SKY/WX    TMP DP  RH WIND       PRES   REMARKS
ATLANTIC *     RAIN      37  34  87 NE17G26   29.83R WCI  28
AUDUBON *      MIX PCPN  34  30  86 NE13      29.86S WCI  25
CLARINDA *     CLOUDY    39  39 100 NE16G23   29.80R FOG     WCI  30
COUNCIL BLFS * MOSUNNY   37  37 100 NE22G32   29.79F WCI  27
CRESTON *      LGT RAIN  37  37 100 NE28G37   29.78F WCI  25
HARLAN  *      FLURRIES  36  36 100 NE17G29   29.87S WCI  25
LAMONI         RAIN      40  38  93 NE14      29.78R FOG     WCI  32
RED OAK *      MIX PCPN  37  37 100 NE23G30   29.79R WCI  26
SHENANDOAH *   LGT RAIN  39  39 100 NE16      29.79S WCI  30
$$

IAZ047>049-059>061-072>074-084-281800-
   CENTRAL IOWA

CITY           SKY/WX    TMP DP  RH WIND       PRES   REMARKS
AMES           RAIN      37  36  96 NE8       29.90S FOG     WCI  31
ANKENY *       LGT RAIN  37  36  93 MISG      29.88F
BOONE *        LGT RAIN  36  34  93 NE14      29.88F WCI  27
CHARITON *     LGT RAIN  39  37  93 NE18      29.79F WCI  30
DES MOINES     LGT RAIN  39  35  86 NE20      29.85F WCI  29
GRINNELL*      LGT RAIN  38  35  85 NE17G23   29.88F WCI  29
KNOXVILLE *    LGT RAIN  39  36  87 NE15      29.83S WCI  31
MARSHALLTOWN   LGT RAIN  39  34  82 NE12      29.90R WCI  32
NEWTON *       CLOUDY    37  34  87 NE16G23   29.85F FOG     WCI  28
PELLA *        LGT RAIN  39  36  87 NE8       29.86S WCI  33
PERRY *        LGT RAIN  36  34  91 NE16      29.86F WCI  26
$$

IAZ004>006-015-016-023>025-035-036-281800-
   NORTH CENTRAL IOWA

CITY           SKY/WX    TMP DP  RH WIND       PRES   REMARKS
ALGONA *       CLOUDY    41  32  70 NE7       29.92F
CLARION *      CLOUDY    43  30  61 NE12      29.91F
ESTHERVILLE    CLOUDY    40  32  73 N8        29.92S WCI  34
FORT DODGE *   CLOUDY    39  28  65 NE9       29.92S WCI  33
MASON CITY     CLOUDY    42  29  59 N6        29.94R
FOREST CITY *    N/A     43  28  56 N3        29.93S
WEBSTER CITY * MIX PCPN  41  32  70 NE12      29.89S
IOWA FALLS *   CLOUDY    42  30  63 E9        29.93R
$$

IAZ007>011-017>019-026>030-037>042-050>054-066-281800-
   NORTHEAST IOWA

CITY           SKY/WX    TMP DP  RH WIND       PRES   REMARKS
CEDAR RAPIDS   LGT RAIN  41  36  82 NE10      29.90S
CHARLES CITY * CLOUDY    45  28  53 N6        29.92S
CLINTON *      RAIN      43  39  86 NE9       29.93R
DECORAH *      CLOUDY    45  30  57 CALM      29.91R
DUBUQUE        CLOUDY    42  32  67 NE9       29.91F
MONTICELLO *   CLOUDY    43  34  70 E6        29.92S
OELWEIN *      PTSUNNY   43  30  61 E7        29.92S
WATERLOO       CLOUDY    43  29  57 NE10      29.92R
$$

IAZ064-065-067-068-078-281800-
   EAST CENTRAL IOWA

CITY           SKY/WX    TMP DP  RH WIND       PRES   REMARKS
DAVENPORT      LGT RAIN  42  38  85 NE13      29.92S FOG
IOWA CITY      LGT RAIN  42  37  82 NE10      29.91F
MUSCATINE *    LGT RAIN  43  39  87 NE14      29.90S
QUAD CITIES    LGT RAIN  44  39  82 NE10      29.90F
$$

IAZ062-063-075>077-085>089-095>099-281800-
   SOUTHEAST IOWA

CITY           SKY/WX    TMP DP  RH WIND       PRES   REMARKS
BURLINGTON     LGT RAIN  45  43  93 NE12      29.84F FOG
FAIRFIELD *    CLOUDY    41  39  93 NE16      29.84F FOG
FORT MADISON * LGT RAIN  45  43  93 NE10      29.84F
KEOKUK *       LGT RAIN  48  46  93 NE13      29.80F
OSKALOOSA *    LGT RAIN  40  38  91 NE20      29.83F WCI  31
OTTUMWA        LGT RAIN  41  39  93 NE18      29.82F FOG
WASHINGTON *   LGT RAIN  41  39  93 NE20      29.86F
$$

ABBREVIATIONS USED IN REMARKS
   TC - TEMPERATURES IN CELSIUS
  WCI - WIND CHILL INDEX
   HX - HEAT INDEX
  VSB - VISIBILITY
$$





USA.gov is the U.S. government's official web portal to all federal, state and local government web resources and services.